TimeEST,TemperatureF,Dew PointF,Humidity,Sea Level PressureIn,VisibilityMPH,Wind Direction,Wind SpeedMPH,Gust SpeedMPH,PrecipitationIn,Events,Conditions,WindDirDegrees,DateUTC
12:54 AM,18.0,6.1,60,30.75,-9999.0,NNW,9.2,-,N/A,,Unknown,340,2013-11-30 05:54:00
1:54 AM,17.1,6.1,62,30.76,-9999.0,North,9.2,-,N/A,,Unknown,350,2013-11-30 06:54:00
2:54 AM,16.0,7.0,68,30.76,-9999.0,NNW,9.2,-,N/A,,Unknown,330,2013-11-30 07:54:00
3:54 AM,16.0,7.0,68,30.76,-9999.0,NNW,11.5,-,N/A,,Unknown,340,2013-11-30 08:54:00
4:54 AM,16.0,7.0,68,30.77,-9999.0,North,12.7,-,N/A,,Unknown,350,2013-11-30 09:54:00
5:54 AM,15.1,7.0,70,30.78,-9999.0,North,12.7,-,N/A,,Unknown,350,2013-11-30 10:54:00
6:54 AM,16.0,7.0,68,30.78,-9999.0,North,12.7,-,N/A,,Unknown,350,2013-11-30 11:54:00
7:54 AM,16.0,7.0,68,30.79,-9999.0,North,11.5,-,N/A,,Unknown,350,2013-11-30 12:54:00
8:54 AM,19.9,9.0,62,30.80,-9999.0,North,8.1,-,N/A,,Unknown,350,2013-11-30 13:54:00
9:54 AM,25.0,12.0,58,30.79,-9999.0,North,5.8,-,N/A,,Unknown,350,2013-11-30 14:54:00
10:54 AM,27.0,14.0,58,30.76,-9999.0,Calm,Calm,-,N/A,,Unknown,0,2013-11-30 15:54:00
11:54 AM,28.9,17.1,61,30.73,-9999.0,Variable,3.5,-,N/A,,Unknown,0,2013-11-30 16:54:00
12:54 PM,30.9,18.0,59,30.71,-9999.0,South,5.8,-,N/A,,Unknown,180,2013-11-30 17:54:00
1:54 PM,30.0,16.0,56,30.68,-9999.0,Calm,Calm,-,N/A,,Unknown,0,2013-11-30 18:54:00
2:54 PM,32.0,15.1,50,30.66,-9999.0,Variable,4.6,-,N/A,,Unknown,0,2013-11-30 19:54:00
3:54 PM,30.0,12.9,49,30.64,-9999.0,South,8.1,-,N/A,,Unknown,170,2013-11-30 20:54:00
4:54 PM,30.0,12.9,49,30.63,-9999.0,South,9.2,-,N/A,,Unknown,190,2013-11-30 21:54:00
5:54 PM,28.0,14.0,56,30.62,-9999.0,South,6.9,-,N/A,,Unknown,170,2013-11-30 22:54:00
6:54 PM,28.0,15.1,58,30.60,-9999.0,SSE,9.2,-,N/A,,Unknown,160,2013-11-30 23:54:00
7:54 PM,28.0,16.0,61,30.57,-9999.0,SSE,10.4,-,N/A,,Unknown,150,2013-12-01 00:54:00
8:54 PM,28.0,17.1,63,30.55,-9999.0,SE,10.4,-,N/A,,Unknown,140,2013-12-01 01:54:00
9:54 PM,28.0,19.0,69,30.53,-9999.0,SE,11.5,-,N/A,,Unknown,140,2013-12-01 02:54:00
10:54 PM,28.9,21.0,72,30.50,-9999.0,SE,12.7,-,N/A,,Unknown,140,2013-12-01 03:54:00
11:54 PM,30.0,23.0,75,30.45,-9999.0,SE,13.8,-,N/A,,Unknown,140,2013-12-01 04:54:00